Regional Weather Roundup
Issued by NWS Upton, NY

Current Version | Previous Version | Graphics & Text | Print | Product List | Glossary Off
Versions: 1 2 3 4 5 6 7 8 9 10 11 12 13 14 15 16 17 18 19 20 21 22 23 24 25 26 27 28 29 30 31 32 33 34 35 36 37 38 39 40 41 42 43 44 45 46 47 48 49 50

000
ASUS41 KOKX 181405
RWROKX

REGIONAL WEATHER ROUNDUP
NATIONAL WEATHER SERVICE NEW YORK NY
900 AM EST THU DEC 18 2014

NOTE: "FAIR" INDICATES FEW OR NO CLOUDS BELOW 12,000 FEET WITH NO
SIGNIFICANT WEATHER AND/OR OBSTRUCTIONS TO VISIBILITY.

NYZ071-072-176-178-NJZ106-104-181500-
NEW YORK CITY METRO AREA


CITY           SKY/WX    TMP DP  RH WIND       PRES   REMARKS
CENTRAL PARK   CLOUDY    39  21  48 NW8G17    30.00R WCI  33
LAGUARDIA APRT MOSUNNY   39  24  55 NW22G29   29.98R WCI  29
KENNEDY INTL   PTSUNNY   40  21  46 NW14G31   29.98R WCI  32
NEWARK/LIBERTY PTSUNNY   38  22  52 NW14      29.99R WCI  30
BRNX BOT. GARD   N/A    N/A N/A N/A NW16      29.98S
TETERBORO      SUNNY     39  23  52 W9G21     29.97R WCI  33
$$

NYZ177-179-078>081-181500-
LONG ISLAND NEW YORK

CITY           SKY/WX    TMP DP  RH WIND       PRES   REMARKS
FARMINGDALE    SUNNY     39  23  52 W17G26    29.96R WCI  30
ISLIP          MOSUNNY   40  23  50 NW21G28   29.92R WCI  30
SHIRLEY        SUNNY     39  24  55 NW18G26   29.93S WCI  30
WESTHAMPTON    SUNNY     40  25  55 W17       29.92S WCI  31
MONTAUK POINT    N/A     41  29  62 W16G28    29.89R
$$

NYZ052-065-067-181500-
HUDSON VALLEY

CITY           SKY/WX    TMP DP  RH WIND       PRES   REMARKS
WHITE PLAINS   MOSUNNY   36  23  59 NW18G30   29.93R WCI  26
NEWBURGH       PTSUNNY   36  25  64 W14G25    29.95R WCI  27
MONTGOMERY     CLOUDY    37  22  54 W13G23    29.95R WCI  29
POUGHKEEPSIE   MOSUNNY   38  23  55 W14       29.93S WCI  30
ALBANY         CLOUDY    36  26  67 W17G30    29.92R WCI  26
$$

NJZ001-105-106-008-010-013-015-019>022-104-181500-
NEW JERSEY

CITY           SKY/WX    TMP DP  RH WIND       PRES   REMARKS
NEWARK/LIBERTY PTSUNNY   38  22  52 NW14      29.99R WCI  30
TETERBORO      SUNNY     39  23  52 W9G21     29.97R WCI  33
CALDWELL       PTSUNNY   37  21  52 NW18G26   29.99R WCI  27
MORRISTOWN     CLOUDY    39  23  52 NW7G21    30.00R WCI  34
SOMERVILLE     CLOUDY    38  21  50 W10G20    30.01R WCI  31
SUSSEX         CLOUDY    36  22  56 NW9       29.98R WCI  29
ANDOVER          N/A     35  21  56 VRB7      29.99R WCI  29
TRENTON        CLOUDY    36  22  56 NW9       30.04R WCI  29
MILLVILLE      SUNNY     37  20  50 NW14      30.10R WCI  28
ATLANTIC CITY  SUNNY     36  20  52 NW18      30.06S WCI  26
WRIGHTSTOWN    CLOUDY    36  22  56 W12G20    30.03R WCI  28
TOMS RIVER     SUNNY     36  21  55 W10G18    30.03R WCI  28
BELMAR         SUNNY     36  19  51 W10       30.01R WCI  28
$$

PAZ047>061-062-071-181500-
EASTERN PENNSYLVANIA

CITY           SKY/WX    TMP DP  RH WIND       PRES   REMARKS
PHILADELPHIA   PTSUNNY   37  20  50 W14       30.10R WCI  28
ALLENTOWN      CLOUDY    37  20  50 W14G20    30.04R WCI  28
SCRANTON       CLOUDY    34  22  61 NW18      30.02R WCI  23
$$

CTZ002-004>006-009-010-012-RIZ004-006-007-MAZ004-011-015-181500-
SOUTHERN NEW ENGLAND
 IN CT

CITY           SKY/WX    TMP DP  RH WIND       PRES   REMARKS
BRADLEY INTL   CLOUDY    38  26  62 NW15G28   29.86R WCI  29
HARTFORD       CLOUDY    38  25  59 W13G25    29.89R WCI  30
DANBURY        PTSUNNY   37  22  54 W13G21    29.92R WCI  29
WTRBRY/OXFORD  MOSUNNY   36  21  55 NW9G21    29.89R WCI  29
BRIDGEPORT     SUNNY     40  25  55 NW15G22   29.91S WCI  32
MERIDEN        SUNNY     37  26  64 NW15      29.90R WCI  28
NEW HAVEN      MOSUNNY   42  27  55 NW9       29.91R
CHESTER        PTSUNNY   36  28  75 NW15G25   29.87S WCI  26
GROTON         PTSUNNY   39  28  64 NW17G23   29.86R WCI  30
WILLIMANTIC    PTSUNNY   38  27  64 NW10G24   29.85R WCI  31

 IN RI

CITY           SKY/WX    TMP DP  RH WIND       PRES   REMARKS
PROVIDENCE     MOSUNNY   39  28  64 W16G25    29.82R WCI  30
BLOCK ISLAND   PTSUNNY   39  28  65 NW20G32   29.84R WCI  30
WESTERLY       MOSUNNY   39  28  64 W8G21     29.86R WCI  33

 IN MA

CITY           SKY/WX    TMP DP  RH WIND       PRES   REMARKS
BOSTON         LGT RAIN  37  32  82 W16G24    29.77R WCI  28
WORCESTER      CLOUDY    34  27  75 W17G31    29.76R WCI  23
WESTFIELD      CLOUDY    38  26  62 NW13G25   29.85R WCI  30
PROVINCETOWN     N/A     37  34  87 W25G32    29.75S WCI  26
NANTUCKET      CLOUDY    40  30  67 NW22G33   29.78R WCI  30
$$

ANZ330-335-338-340-345-350-353-355-181500-
COASTAL MARINE OBSERVATIONS


STATION/POSITION TIME  SKY/WX   TEMP    WIND        PRES    VSBY  WAVE
                                AIR SEA DIR/SP/G                  HT/PER
                 (UTC)          (F)     (DEG/KT/KT) (MB)    (MI)  (FT/S)
NY HARB ENTRANCE 1400            39 47  280/ 19/ 23 1015.3          3/ 4
4S FIRE IS       1400               46                N/A           4/ 5
20S FIRE ISLAND  1300            40 50              1014.2          6/ 6
23SW MTP         1400                                 N/A           7/ 7
HUDSON CANYON    1400            42 55  300/ 23/ 29 1014.3          9/ 7
EXECUTION ROCKS  1400            39 42  290/ 17/ 25   N/A
WESTERN LI SOUND 1400            39     290/ 21/ 27   N/A           2/ 3
CENTRAL LI SOUND 1300            39 45  280/ 17/ 23   N/A           3/ 5
EASTERN LI SOUND NOT AVBL
ROBBINS REEF     1400            38     320/ 17/ 23 1014.0
$$


>>>>>>>>>>>>>>>>>>>>>>>>>>>> KEY <<<<<<<<<<<<<<<<<<<<<<<<<<<
>                                                          <
>     SKY/WX - SKY CONDITION/PRESENT WEATHER               <
>     TMP    - TEMPERATURE IN FAHRENHEIT                   <
>     DP     - DEWPOINT IN FAHRENHEIT                      <
>     RH     - RELATIVE HUMIDITY IN PERCENT                <
>     WIND   - DIRECTION AND SPEED IN MPH                  <
>     PRES   - MEAN SEA LEVEL PRESSURE IN INCHES OF HG     <
>     WCI    - WIND CHILL INDEX                            <
>     VSB    - VISIBILITY IN MILES                         <
>     HX     - HEAT INDEX                                  <
>     TC     - TEMPERATURE IN CELSIUS                      <
>     VRB    - VARIABLE WIND DIRECTION                     <
>                                                          <
>>>>>>>>>>>>>>>>>>>>>>>>>>>> KEY <<<<<<<<<<<<<<<<<<<<<<<<<<<





USA.gov is the U.S. government's official web portal to all federal, state and local government web resources and services.